Weather History for Memphis, TN

Change the Weather History Date:

Sunday, May 12, 2013

  Actual Average Record
Temperature  
Mean Temperature 59 °F 71 °F  
Max Temperature 67 °F 80 °F 93 °F (2005)
Min Temperature 50 °F 61 °F 44 °F (1960)
Degree Days  
Heating Degree Days 6 1  
Month to date heating degree days 54 13  
Since 1 July heating degree days 2930 2958  
Cooling Degree Days 0 6  
Month to date cooling degree days 29 61  
Year to date cooling degree days 105 156  
Growing Degree Days 9 (Base 50)    
Moisture  
Dew Point 36 °F    
Average Humidity 47    
Maximum Humidity 66    
Minimum Humidity 28    
Precipitation  
Precipitation 0.00 in 0.18 in 1.82 in (1971)
Month to date precipitation 5.52 2.23  
Year to date precipitation 29.35 21.26  
Snow  
Snow 0.00 in 0.00 in - ()
Month to date snowfall 0.0 0.0  
Since 1 July snowfall 0.9 3.8  
Snow Depth 0.00 in    
Sea Level Pressure  
Sea Level Pressure 30.18 in    
Wind  
Wind Speed 7 mph (NNE)    
Max Wind Speed 16 mph    
Max Gust Speed 21 mph    
Visibility 10 miles    
Events      
T = Trace of Precipitation, MM = Missing Value Source: NWS Daily Summary

Daily Weather History Graph

Daily Weather History Graph

Search for Another Location

Airport:

Trip Planner

Search our weather history database for the weather conditions in past years. The results will help you decide how hot, cold, wet, or windy it might be!

Date:

Astronomy

May. 12, 2013 Rise Set
Actual Time 5:58 AM CDT 7:54 PM CDT
Civil Twilight 5:30 AM CDT 8:22 PM CDT
Nautical Twilight 4:56 AM CDT 8:56 PM CDT
Astronomical Twilight 4:20 AM CDT 9:32 PM CDT
Moon 7:54 AM CDT (5/12) 10:20 PM CDT (5/12)
Length of Visible Light 14h 52m
Length of Day
13h 56m
Waxing Crescent, 7% of the Moon is Illuminated
May 12
Waxing Crescent
May 17
First Quarter
May 24
Full
May 31
Last Quarter
Jun 8
New

Hourly Weather History & Observations

Time (CDT) Temp. Dew Point Humidity Pressure Visibility Wind Dir Wind Speed Gust Speed Precip Events Conditions
12:54 AM 63.0 °F 48.9 °F 60% 30.11 in 10.0 mi North 11.5 mph - N/A   Partly Cloudy
1:54 AM 61.0 °F 39.9 °F 46% 30.12 in 10.0 mi NNE 11.5 mph - N/A   Clear
2:54 AM 59.0 °F 39.9 °F 49% 30.12 in 10.0 mi NNE 6.9 mph - N/A   Clear
3:54 AM 57.0 °F 39.0 °F 51% 30.14 in 10.0 mi NNE 6.9 mph - N/A   Clear
4:54 AM 54.0 °F 37.9 °F 55% 30.15 in 10.0 mi NNE 5.8 mph - N/A   Clear
5:54 AM 54.0 °F 37.0 °F 53% 30.18 in 10.0 mi NNE 8.1 mph - N/A   Clear
6:54 AM 54.0 °F 37.0 °F 53% 30.20 in 10.0 mi NNE 9.2 mph - N/A   Clear
7:54 AM 57.0 °F 36.0 °F 45% 30.21 in 10.0 mi NNE 10.4 mph - N/A   Clear
8:54 AM 59.0 °F 35.1 °F 41% 30.22 in 10.0 mi NE 11.5 mph - N/A   Clear
9:54 AM 61.0 °F 33.1 °F 35% 30.23 in 10.0 mi NNE 9.2 mph 17.3 mph N/A   Clear
10:54 AM 63.0 °F 32.0 °F 31% 30.23 in 10.0 mi North 13.8 mph 20.7 mph N/A   Partly Cloudy
11:54 AM 63.0 °F 30.9 °F 30% 30.23 in 10.0 mi NE 10.4 mph - N/A   Partly Cloudy
12:54 PM 64.0 °F 32.0 °F 30% 30.21 in 10.0 mi NE 9.2 mph - N/A   Partly Cloudy
1:54 PM 66.0 °F 33.1 °F 29% 30.20 in 10.0 mi North 10.4 mph - N/A   Partly Cloudy
2:54 PM 64.9 °F 32.0 °F 29% 30.20 in 10.0 mi Variable 5.8 mph - N/A   Partly Cloudy
3:54 PM 66.0 °F 33.1 °F 29% 30.19 in 10.0 mi Variable 4.6 mph 16.1 mph N/A   Partly Cloudy
4:54 PM 66.0 °F 32.0 °F 28% 30.19 in 10.0 mi WNW 11.5 mph - N/A   Scattered Clouds
5:54 PM 64.9 °F 33.1 °F 31% 30.18 in 10.0 mi WNW 6.9 mph - N/A   Scattered Clouds
6:54 PM 64.0 °F 33.1 °F 31% 30.17 in 10.0 mi Variable 5.8 mph - N/A   Partly Cloudy
7:54 PM 60.1 °F 33.1 °F 36% 30.16 in 10.0 mi NNW 5.8 mph - N/A   Partly Cloudy
8:54 PM 57.9 °F 35.1 °F 42% 30.18 in 10.0 mi Calm Calm - N/A   Partly Cloudy
9:54 PM 55.9 °F 37.9 °F 51% 30.18 in 10.0 mi Calm Calm - N/A   Partly Cloudy
10:54 PM 55.0 °F 39.0 °F 55% 30.18 in 10.0 mi Calm Calm - N/A   Clear
11:54 PM 50.0 °F 39.9 °F 68% 30.18 in 10.0 mi South 6.9 mph - N/A   Partly Cloudy